#timestamp,LO_Frequency,Hit,StdDev 
1624636815.3,286047001.6,N
1624636835.1,286047002.1,N
1624636855.8,286047001.4,N
1624636875.7,286047004.0,Y
1624636895.5,286046999.8,P
1624636915.4,286047000.2,N
1624636935.2,286047000.1,N
1624636955.0,286046999.8,N
1624636955.9,286046999.8,N
1624636975.8,286047002.2,Y
1624636995.6,286047002.2,P
1624637015.5,286047001.0,N
1624637035.3,286047000.5,N
1624637055.1,286047000.6,N
1624637075.9,286047000.3,N
1624637095.7,286047000.1,N
1624637115.5,286047002.6,Y
1624637135.4,286047000.5,P
1624637155.2,286047000.7,P
1624637175.1,286046998.7,P
1624637176.0,286046998.7,N
1624637195.8,286047000.7,N
1624637215.6,286047000.9,N
1624637235.5,286047000.7,N
1624637255.3,286047001.1,N
1624637275.1,286047001.6,N
1624637295.9,286047004.4,Y
1624637315.7,286047002.4,P
1624637335.6,286046999.9,N
1624637355.4,286047000.2,N
1624637375.2,286047002.7,N
1624637395.1,286047000.5,N
1624637396.0,286047000.5,N
1624637415.8,286047002.7,N
1624637435.6,286047002.2,N
1624637455.5,286047002.4,N
1624637475.3,286046999.8,N
1624637495.2,286047002.8,N
1624637515.9,286047002.6,N
1624637535.7,286047000.2,N
1624637555.6,286046999.7,N
1624637575.4,286047002.6,N
1624637595.2,286047002.8,N
1624637615.1,286047002.3,N
1624637616.0,286047002.3,N
1624637635.8,286047002.3,N
1624637655.7,286046999.8,N
1624637675.5,286047000.2,N
1624637695.3,286046999.9,N
1624637715.2,286047000.1,N
1624637735.9,286047001.6,N
1624637755.7,286047001.8,N
1624637775.6,286047002.6,N
1624637795.4,286046998.8,N
1624637815.2,286046998.6,N
1624637835.1,286046998.9,N
1624637836.0,286046998.9,N
1624637855.8,286047000.7,N
1624637875.7,286046999.7,N
1624637895.5,286046999.1,N
1624637915.3,286046998.2,N
1624637935.2,286047001.1,N
1624637955.0,286047000.7,N
1624637955.9,286047000.7,N
1624637975.8,286046998.8,N
1624637995.6,286046998.9,N
1624638015.4,286046998.5,N
1624638035.3,286047001.2,N
1624638055.1,286046998.5,N
1624638075.8,286047000.2,N
1624638095.7,286046999.8,N
1624638115.5,286047001.9,N
1624638135.4,286047001.6,N
1624638155.2,286047001.5,N
1624638175.0,286047001.6,N
1624638175.9,286047001.6,N
1624638195.8,286047001.7,N
1624638215.6,286047002.6,N
1624638235.4,286047002.7,N
1624638255.3,286047000.1,N
1624638275.1,286046998.3,N
1624638295.9,286047001.2,N
1624638315.7,286047000.5,N
1624638335.5,286046998.5,N
1624638355.4,286046998.3,N
1624638375.2,286046999.9,N
1624638395.0,286047002.7,N
1624638395.9,286047002.7,N
1624638415.8,286047002.7,N
1624638435.6,286046999.9,N
1624638455.5,286046999.7,N
1624638475.3,286047002.1,N
1624638495.1,286047002.6,N
1624638515.9,286047001.6,N
1624638535.7,286047003.9,N
1624638555.5,286047001.5,N
1624638575.4,286047001.7,N
1624638595.2,286047002.2,N
1624638615.1,286047001.5,N
1624638616.0,286047001.5,N
1624638635.8,286047001.9,N
1624638655.6,286047001.5,N
1624638675.5,286047002.1,N
1624638695.3,286047001.4,N
1624638715.1,286047001.5,N
1624638735.9,286047002.1,N
1624638755.2,286047002.1,N
1624638775.1,286047002.8,N
1624638776.0,286047002.8,N
1624638795.8,286047001.9,N
1624638815.7,286047002.7,N
1624638835.5,286047002.3,N
1624638855.3,286047002.1,N
1624638875.2,286047002.2,N
1624638895.0,286047001.7,N
1624638895.9,286047001.7,N
1624638915.8,286047001.5,N
1624638935.6,286047002.7,Y
1624638955.4,286046998.4,P
1624638975.3,286046998.5,N
1624638995.1,286046998.9,N
1624639015.8,286046998.3,N
1624639035.7,286046996.5,N
1624639055.5,286046999.0,N
1624639075.4,286046998.6,N
1624639095.2,286046996.6,N
1624639115.0,286046997.7,N
1624639115.9,286046997.7,N
1624639135.8,286046997.4,N
1624639155.6,286046994.9,Y
1624639175.5,286046997.0,P
1624639195.3,286046997.8,P
1624639215.1,286046997.9,P
1624639235.9,286046997.4,Y
1624639255.7,286046998.2,P
1624639275.5,286046996.9,P
1624639295.4,286046998.7,N
1624639315.2,286046998.1,N
1624639335.1,286047000.6,N
1624639336.0,286047000.6,N
1624639355.8,286046998.2,N
1624639375.6,286047000.3,N
1624639395.5,286047000.3,N
1624639415.3,286047002.7,N
1624639435.1,286047000.1,N
1624639455.9,286047002.4,N
1624639475.7,286046999.7,N
1624639495.6,286047000.3,N
1624639515.4,286047000.1,N
1624639535.2,286047000.6,N
1624639555.1,286046999.7,N
1624639556.0,286046999.7,N
1624639575.8,286046999.8,N
1624639595.7,286046999.8,N
1624639615.5,286047000.6,N
1624639635.3,286047002.8,N
1624639655.2,286047002.3,N
1624639675.9,286047002.8,N
1624639695.7,286047002.4,N
1624639715.6,286047002.1,N
1624639735.4,286046999.8,N
1624639755.2,286046999.9,N
1624639775.1,286047002.7,N
1624639776.0,286047002.7,N
1624639795.8,286047002.8,N
1624639815.7,286047002.7,N
1624639835.5,286046999.7,N
1624639855.3,286047002.8,N
1624639875.2,286047002.4,N
1624639895.0,286047002.3,N
1624639895.9,286047002.3,N
1624639915.8,286047002.5,N
1624639935.6,286047002.2,N
1624639955.4,286047004.0,Y
1624639975.3,286047002.0,P
1624639995.1,286047002.1,P
1624640015.8,286047002.4,P
1624640035.7,286047001.3,Y
1624640055.5,286047000.3,P
1624640075.4,286047000.9,N
1624640095.2,286047001.0,N
1624640115.0,286047000.6,N
1624640115.9,286047000.6,N
1624640135.8,286047000.3,N
1624640155.6,286047000.3,N
1624640175.4,286047002.4,Y
1624640195.3,286046998.2,P
1624640215.1,286046998.3,N
1624640235.9,286046998.7,N
1624640255.7,286046996.6,Y
1624640275.5,286046998.9,P
1624640295.4,286046996.6,P
1624640315.2,286046996.6,P
1624640335.1,286046999.5,N
1624640336.0,286046999.5,N
1624640355.8,286046998.7,N
1624640375.6,286046998.8,N
1624640395.5,286047000.8,N
